Regional Weather Roundup
Issued by NWS

Home | Current Version | Previous Version | Graphics & Text | Print | Product List | Glossary On
Versions: 1 2 3 4 5 6 7 8 9 10 11 12 13 14 15 16 17 18 19 20 21 22 23 24 25 26 27 28 29 30 31 32 33 34 35 36 37 38 39 40 41 42 43 44 45 46 47 48 49 50
800
ASUS44 KJAN 230503
RWRMS

MISSISSIPPI HOURLY WEATHER ROUNDUP
NATIONAL WEATHER SERVICE JACKSON MS
1200 AM CDT WED JUL 23 2014

NOTE: "FAIR: INDICATES FEW OR NO CLOUDS BELOW 12,000 FEET WITH NO
SIGNIFICANT WEATHER AND/OR OBSTRUCTIONS TO VISIBILITY.

MSZ001>002-007>008-010>013-018>021-025>028-034>036-230600-
NORTHWEST MISSISSIPPI

CITY           SKY/WX    TMP DP  RH WIND       PRES   REMARKS
CLARKSDALE     FAIR      73  73 100 CALM      30.08S
CLEVELAND      FAIR      75  74  99 NW3       30.06S
GREENWOOD      LGT RAIN  74  72  93 CALM      30.06F
GREENVILLE     PTCLDY    76  72  87 N5        30.05S
GRENADA        CLOUDY    72  68  88 N5        30.07F
OLIVE BRANCH   CLEAR     77  77 100 CALM      30.08R
OXFORD         FAIR      75  72  88 SW3       30.10S
TUNICA         PTCLDY    77  72  83 NW3       30.08S
$$

MSZ003>006-009-014>017-022>024-029>033-037>039-230600-
NORTHEAST MISSISSIPPI

CITY           SKY/WX    TMP DP  RH WIND       PRES   REMARKS
BELMONT        FAIR      72  71  98 CALM      30.09R
COLUMBUS AFB   CLOUDY    74  74 100 E1        30.08R
CORINTH        FAIR      75  72  88 CALM      30.08S
GOLDN TRIANGLE CLOUDY    79  72  78 CALM      30.08S
STARKVILLE     FAIR      72  72 100 CALM      30.08R FOG
TUPELO         PTCLDY    76  73  91 CALM      30.08S
$$

MSZ040-058-230600-
CENTRAL MISSISSIPPI

CITY           SKY/WX    TMP DP  RH WIND       PRES   REMARKS
JACKSON INTL   CLOUDY    74  73  97 CALM      30.07R
JACKSON HAWKNS CLOUDY    75  70  84 CALM      30.07S
MERIDIAN KEY   PTCLDY    70  68  93 CALM      30.07S
MERIDIAN NAS   MOCLDY    72  71  97 CALM      30.07S
RAYMOND        LGT RAIN  73  68  83 CALM      30.06S
VICKSBURG      CLOUDY    76  73  91 NE3       30.05R
$$

MSZ059>079-230600-
SOUTH MISSISSIPPI

CITY           SKY/WX    TMP DP  RH WIND       PRES   REMARKS
BROOKHAVEN     FAIR      70  70 100 CALM      30.08S
COLUMBIA       FOG       70  70 100 CALM      30.05F VSB 1/4
HATTIESBURG    FOG       69  69 100 CALM      30.06F VSB 3/4
MCCOMB         MOCLDY    70  68  93 SE6       30.07R
NATCHEZ        MOCLDY    75  72  88 E7        30.06R
PINE BELT      PTCLDY    68  64  88 CALM      30.07S
$$

MSZ080>082-230600-
COASTAL MISSISSIPPI

CITY           SKY/WX    TMP DP  RH WIND       PRES   REMARKS
BILOXI         CLEAR     75  71  88 NE1       30.04S
PASCAGOULA     PTCLDY    72  71  97 N5        30.05R
GULFPORT       CLEAR     76  69  79 N6        30.03F
$$



USA.gov is the U.S. government's official web portal to all federal, state and local government web resources and services.